Weather reports worldwide

Advertisment
Capo Frasca, Italy (16539): temperature & dewpoint: 09.12.2018 07:00:00 - 15.12.2018 07:00:00 (CET)Capo Frasca, Italy (16539): wind speed: 09.12.2018 07:00:00 - 15.12.2018 07:00:00 (CET)Capo Frasca, Italy (16539): wind direction: 09.12.2018 07:00:00 - 15.12.2018 07:00:00 (CET)Capo Frasca, Italy (16539): reduced air pressure: 09.12.2018 07:00:00 - 15.12.2018 07:00:00 (CET)Capo Frasca, Italy (16539): visibility: 09.12.2018 07:00:00 - 15.12.2018 07:00:00 (CET)
Date & Time tt [°C] td [°C] ff [km/h] ff [kn] dd ppp [hPa] vv [km]
15.12.2018 07:00:00 - - - - - - -
15.12.2018 06:00:00 - - - - - - -
15.12.2018 05:00:00 - - - - - - -
15.12.2018 04:00:00 - - - - - - -
15.12.2018 03:00:00 - - - - - - -
15.12.2018 02:00:00 - - - - - - -
15.12.2018 01:00:00 - - - - - - -
15.12.2018 00:00:00 - - - - - - -
14.12.2018 23:00:00 - - - - - - -
14.12.2018 22:00:00 - - - - - - -
14.12.2018 21:00:00 - - - - - - -
14.12.2018 20:00:00 - - - - - - -
14.12.2018 19:00:00 11,0 9,9 15 8 N 1010,3 20
14.12.2018 18:00:00 - - - - - - -
14.12.2018 17:00:00 - - - - - - -
14.12.2018 16:00:00 13,0 11,2 18 10 N 1007,8 20
14.12.2018 15:00:00 - - - - - - -
14.12.2018 14:00:00 - - - - - - -
14.12.2018 13:00:00 12,8 11,4 16 9 NE 1007,0 20
14.12.2018 12:00:00 - - - - - - -
14.12.2018 11:00:00 - - - - - - -
14.12.2018 10:00:00 12,2 10,8 2 1 SE 1006,4 10
14.12.2018 09:00:00 - - - - - - -
14.12.2018 08:00:00 - - - - - - -
14.12.2018 07:00:00 12,0 10,6 2 1 SSE 1005,4 10
14.12.2018 06:00:00 - - - - - - -
14.12.2018 05:00:00 - - - - - - -
14.12.2018 04:00:00 - - - - - - -
14.12.2018 03:00:00 - - - - - - -
14.12.2018 02:00:00 - - - - - - -
14.12.2018 01:00:00 - - - - - - -
14.12.2018 00:00:00 - - - - - - -
13.12.2018 23:00:00 - - - - - - -
13.12.2018 22:00:00 - - - - - - -
13.12.2018 21:00:00 - - - - - - -
13.12.2018 20:00:00 - - - - - - -
13.12.2018 19:00:00 14,4 13,3 28 15 SSW 1006,3 7
13.12.2018 18:00:00 - - - - - - -
13.12.2018 17:00:00 - - - - - - -
13.12.2018 16:00:00 14,2 13,2 5 3 SSW 1008,1 8
13.12.2018 15:00:00 - - - - - - -
13.12.2018 14:00:00 - - - - - - -
13.12.2018 13:00:00 14,2 13,1 13 7 SSE 1009,6 15
13.12.2018 12:00:00 - - - - - - -
13.12.2018 11:00:00 - - - - - - -
13.12.2018 10:00:00 9,8 8,9 13 7 SE 1012,4 15
13.12.2018 09:00:00 - - - - - - -
13.12.2018 08:00:00 - - - - - - -
13.12.2018 07:00:00 9,2 8,6 0 0 N 1013,4 15
13.12.2018 06:00:00 - - - - - - -
13.12.2018 05:00:00 - - - - - - -
13.12.2018 04:00:00 - - - - - - -
13.12.2018 03:00:00 - - - - - - -
13.12.2018 02:00:00 - - - - - - -
13.12.2018 01:00:00 - - - - - - -
13.12.2018 00:00:00 - - - - - - -
12.12.2018 23:00:00 - - - - - - -
12.12.2018 22:00:00 - - - - - - -
12.12.2018 21:00:00 - - - - - - -
12.12.2018 20:00:00 - - - - - - -
12.12.2018 19:00:00 11,8 11,8 0 0 N 1017,2 20
12.12.2018 18:00:00 - - - - - - -
12.12.2018 17:00:00 - - - - - - -
12.12.2018 16:00:00 13,8 13,2 0 0 N 1017,4 20
12.12.2018 15:00:00 - - - - - - -
12.12.2018 14:00:00 - - - - - - -
12.12.2018 13:00:00 14,2 13,7 2 1 WNW 1018,4 20
12.12.2018 12:00:00 - - - - - - -
12.12.2018 11:00:00 - - - - - - -
12.12.2018 10:00:00 13,6 12,5 16 9 WNW 1019,0 20
12.12.2018 09:00:00 - - - - - - -
12.12.2018 08:00:00 - - - - - - -
12.12.2018 07:00:00 12,4 12,4 16 9 WNW 1018,7 20
12.12.2018 06:00:00 - - - - - - -
12.12.2018 05:00:00 - - - - - - -
12.12.2018 04:00:00 - - - - - - -
12.12.2018 03:00:00 - - - - - - -
12.12.2018 02:00:00 - - - - - - -
12.12.2018 01:00:00 - - - - - - -
12.12.2018 00:00:00 - - - - - - -
11.12.2018 23:00:00 - - - - - - -
11.12.2018 22:00:00 - - - - - - -
11.12.2018 21:00:00 - - - - - - -
11.12.2018 20:00:00 - - - - - - -
11.12.2018 19:00:00 12,2 11,9 0 0 N 1019,6 20
11.12.2018 18:00:00 - - - - - - -
11.12.2018 17:00:00 - - - - - - -
11.12.2018 16:00:00 13,0 11,9 26 14 NW 1019,5 20
11.12.2018 15:00:00 - - - - - - -
11.12.2018 14:00:00 - - - - - - -
11.12.2018 13:00:00 13,8 11,3 28 15 NW 1020,2 20
11.12.2018 12:00:00 - - - - - - -
11.12.2018 11:00:00 - - - - - - -
11.12.2018 10:00:00 13,0 10,2 29 16 NW 1020,4 20
11.12.2018 09:00:00 - - - - - - -
11.12.2018 08:00:00 - - - - - - -
11.12.2018 07:00:00 12,0 10,4 28 15 NW 1020,5 20
11.12.2018 06:00:00 - - - - - - -
11.12.2018 05:00:00 - - - - - - -
11.12.2018 04:00:00 - - - - - - -
11.12.2018 03:00:00 - - - - - - -
11.12.2018 02:00:00 - - - - - - -
11.12.2018 01:00:00 - - - - - - -
11.12.2018 00:00:00 - - - - - - -
10.12.2018 23:00:00 - - - - - - -
10.12.2018 22:00:00 - - - - - - -
10.12.2018 21:00:00 - - - - - - -
10.12.2018 20:00:00 - - - - - - -
10.12.2018 19:00:00 12,8 10,4 34 18 NNW 1022,4 15
10.12.2018 18:00:00 - - - - - - -
10.12.2018 17:00:00 - - - - - - -
10.12.2018 16:00:00 13,2 10,2 46 25 NNW 1021,8 12
10.12.2018 15:00:00 - - - - - - -
10.12.2018 14:00:00 - - - - - - -
10.12.2018 13:00:00 14,0 12,7 50 27 NW 1022,3 15
10.12.2018 12:00:00 - - - - - - -
10.12.2018 11:00:00 - - - - - - -
10.12.2018 10:00:00 13,8 11,5 52 28 NNW 1022,7 15
10.12.2018 09:00:00 - - - - - - -
10.12.2018 08:00:00 - - - - - - -
10.12.2018 07:00:00 13,2 11,3 46 25 NW 1022,4 10
10.12.2018 06:00:00 - - - - - - -
10.12.2018 05:00:00 - - - - - - -
10.12.2018 04:00:00 - - - - - - -
10.12.2018 03:00:00 - - - - - - -
10.12.2018 02:00:00 - - - - - - -
10.12.2018 01:00:00 - - - - - - -
10.12.2018 00:00:00 - - - - - - -
09.12.2018 23:00:00 - - - - - - -
09.12.2018 22:00:00 - - - - - - -
09.12.2018 21:00:00 - - - - - - -
09.12.2018 20:00:00 - - - - - - -
09.12.2018 19:00:00 14,8 13,5 42 23 NW 1022,2 10
09.12.2018 18:00:00 - - - - - - -
09.12.2018 17:00:00 - - - - - - -
09.12.2018 16:00:00 15,4 14,8 29 16 WNW 1022,2 10
09.12.2018 15:00:00 - - - - - - -
09.12.2018 14:00:00 - - - - - - -
09.12.2018 13:00:00 15,6 14,8 29 16 WNW 1023,4 10
09.12.2018 12:00:00 - - - - - - -
09.12.2018 11:00:00 - - - - - - -
09.12.2018 10:00:00 15,4 14,6 29 16 W 1024,0 10
09.12.2018 09:00:00 - - - - - - -
09.12.2018 08:00:00 - - - - - - -
09.12.2018 07:00:00 14,4 13,8 35 19 W 1023,5 10

tt = temperature
td = dewpoint
ff = wind speed
dd = wind direction
ppp = reduced air pressure
vv = visibility

Next stations